Flag for Rwanda Weather past 2 weeks in Kigali, Rwanda

Now
59 °F

Passing clouds.


Feels Like: 59 °F
Forecast: 61 / 79 °F
Wind: No wind

Location: Kigali Airport

Current Time: Jul 5, 2015 at 6:29:07 AM

Latest Report: Jul 5, 2015 at 5:30 AM


Visibility: N/A

Pressure: 30.21 "Hg (25.12 "Hg at 1555m altitude)

Humidity: 100%

Dew point: 59 °F

Location of KigaliLocation

Historic Weather in Kigali — Graph

°F

Kigali temperature yesterday

Maximum temperature yesterday: 79 °F (at 1:30 PM)
Minimum temperature yesterday: 61 °F (at 4:30 AM)
Average temperature yesterday: 69 °F

Past Weeks' High & Low Weather Summary

 TemperatureHumidityPressure
High82 °F (Jun 28, 3:00 PM)100% (Jun 20, 4:00 AM)30.30 "Hg (Jun 20, 4:00 AM)
Low59 °F (Jun 30, 5:00 AM)45% (Jun 23, 3:30 PM)30.09 "Hg (Jun 30, 3:00 PM)
Average71 °F73%30.20 "Hg
* Reported Jun 20 4:00 AM — Jul 5 4:30 AM, Kigali, Weather by CustomWeather, © 2015

Note: Actual official high and low records may vary slightly from our data, if they occured in-between our weather recording intervals... More about our weather records

Advertising

Kigali weather history for previous 24 hours

 ConditionsComfort  
Time TempWeatherWind HumidityBarometerVisibility
4:30 AM
Sun, Jul 5
59 °FPassing clouds.No wind100%30.18 "HgN/A
4:00 AM61 °FPassing clouds.5 mph100%30.18 "HgN/A
3:30 AM61 °FPassing clouds.3 mph94%30.18 "HgN/A
3:00 AM61 °FPassing clouds.3 mph100%30.18 "HgN/A
2:30 AM61 °FPassing clouds.3 mph100%30.18 "HgN/A
2:00 AM61 °FPassing clouds.3 mph100%30.18 "HgN/A
1:30 AM63 °FPassing clouds.5 mph94%30.21 "HgN/A
1:00 AM63 °FPartly cloudy.3 mph94%30.21 "HgN/A
12:30 AM63 °FPartly cloudy.3 mph94%30.21 "HgN/A
12:00 AM64 °FPartly cloudy.5 mph88%30.21 "HgN/A
11:30 PM
Sat, Jul 4
64 °FPassing clouds.3 mph88%30.21 "HgN/A
11:00 PM66 °FPassing clouds.3 mph83%30.21 "HgN/A
10:30 PM66 °FPassing clouds.3 mph83%30.21 "HgN/A
10:00 PM66 °FPassing clouds.3 mph78%30.24 "HgN/A
9:30 PM68 °FPassing clouds.3 mph73%30.24 "HgN/A
9:00 PM70 °FPassing clouds.No wind69%30.24 "HgN/A
7:30 PM73 °FPartly cloudy.5 mph61%30.21 "HgN/A
5:30 PM75 °FBroken clouds.6 mph61%30.18 "HgN/A
5:00 PM75 °FBroken clouds.7 mph57%30.15 "HgN/A
4:30 PM77 °FBroken clouds.9 mph54%30.18 "HgN/A
4:00 PM77 °FBroken clouds.10 mph54%30.18 "HgN/A
3:30 PM77 °FBroken clouds.9 mph54%30.18 "HgN/A
3:00 PM77 °FBroken clouds.8 mph54%30.18 "HgN/A
2:30 PM77 °FBroken clouds.6 mph54%30.18 "HgN/A
2:00 PM77 °FBroken clouds.8 mph54%30.18 "HgN/A
1:30 PM79 °FBroken clouds.5 mph51%30.21 "HgN/A
1:00 PM77 °FBroken clouds.7 mph57%30.21 "HgN/A
12:30 PM77 °FBroken clouds.7 mph57%30.21 "HgN/A
12:00 PM75 °FBroken clouds.7 mph57%30.24 "HgN/A
11:30 AM77 °FBroken clouds.6 mph57%30.27 "HgN/A
11:00 AM75 °FScattered clouds.5 mph61%30.27 "HgN/A
10:30 AM75 °FScattered clouds.3 mph61%30.27 "HgN/A
10:00 AM72 °FScattered clouds.3 mph69%30.27 "HgN/A
9:30 AM72 °FScattered clouds.No wind69%30.27 "HgN/A
9:00 AM70 °FScattered clouds.No wind78%30.27 "HgN/A
8:30 AM66 °FPassing clouds.No wind88%30.27 "HgN/A
8:00 AM66 °FPassing clouds.5 mph88%30.24 "HgN/A
7:30 AM64 °FPassing clouds.No wind94%30.24 "HgN/A
7:00 AM63 °FPassing clouds.No wind100%30.21 "HgN/A
6:30 AM61 °FPassing clouds.No wind100%30.18 "Hg5 mi
6:00 AM61 °FPassing clouds.No wind100%30.18 "Hg5 mi
Weather by CustomWeather, © 2015

See weather overviewHow to use our weather pages